Voltar ao catálogo

DEMOSAT/FALCON 1

AtivoCiênciaVLEO
NORAD 33393·PAYLOAD·🇺🇸 United States

Lançado Sep 28, 2008 de Ronald Reagan Space and Missile Test Range

Loading…

Próximas Passagens (próximas 24 horas)

TLE

AtualizadoSource: Space-Track

Época: Sep 14, 2026, 10:36 UTC

1 33393U 08048A   26257.44169024  .00002594  00000-0  15884-3 0  9992
2 33393   9.3450 248.7274 0010169 189.0171 170.9847 14.97001536976310

Acompanhe DEMOSAT/FALCON 1 em tempo real com AllMySat

Download on the App Store